Wind_Speed
21 20 19 18 18 17 15 13 13 13 15 15 14 16 25 33 38 37 32 31 26 23 21 23 25 24 12 4 15 17 13 19 32 36 31 10 15 23 11 19 11 20 22 7
24 24 23 22 21 20 20 19 16 17 15 17 17 22 28 36 38 40 38 35 31 30 26 26 23 23 16 14 13 15 8 16 24 33 27 24 16 8 10 12 16 17 20 15
26 26 25 24 24 23 23 24 23 20 20 21 18 23 27 29 38 38 35 36 37 35 36 32 29 25 24 22 18 13 16 21 21 28 33 22 17 12 11 20 20 21 28 16
31 30 29 28 27 27 26 26 23 21 20 24 21 23 23 28 33 37 36 32 35 35 41 41 36 29 25 24 25 25 26 29 26 23 29 34 25 20 21 16 18 19 19 24
37 36 36 34 34 33 31 31 29 28 27 29 28 29 27 30 34 37 37 34 33 38 39 40 39 37 34 32 32 33 32 31 31 32 29 33 34 30 26 24 21 27 15 21
42 42 42 41 39 37 34 33 34 33 32 32 30 33 35 36 34 37 36 32 31 35 38 37 38 39 42 41 39 39 40 38 38 41 37 36 38 36 34 30 25 19 18 16
42 42 43 44 44 43 41 38 38 35 35 36 37 38 36 38 38 42 41 39 37 35 35 34 37 39 43 48 46 46 42 43 40 37 41 42 35 35 38 38 32 29 25 20
44 43 43 43 43 43 43 41 41 39 38 41 41 40 41 41 39 40 44 45 44 40 33 31 36 42 46 49 51 51 50 45 44 40 34 31 34 34 33 36 38 40 32 26
48 46 44 44 44 44 43 40 41 40 41 44 43 42 42 43 42 38 41 45 47 44 42 37 36 40 45 45 52 53 53 49 43 36 33 28 23 22 28 34 42 45 38 29
43 44 44 43 43 44 44 41 39 39 39 43 40 40 41 40 41 40 39 44 46 48 47 45 43 40 41 47 47 57 53 50 48 43 39 35 19 24 31 32 35 36 31 29
39 36 38 39 40 41 40 37 39 40 41 43 39 38 40 44 43 42 40 44 48 51 49 48 47 48 45 47 48 48 53 55 53 48 45 38 20 33 33 36 37 33 25 24
34 34 34 33 35 37 37 35 37 35 36 37 35 36 37 37 35 35 37 43 47 49 47 46 45 46 47 50 48 48 51 56 53 52 47 40 32 32 38 41 39 33 30 26
29 28 28 29 30 32 33 32 32 33 33 35 33 31 31 33 36 37 38 42 44 46 45 45 45 47 48 48 52 49 53 55 57 55 55 52 45 35 41 43 44 37 35 31
26 25 24 25 25 27 28 29 30 30 31 31 28 26 31 33 35 35 36 40 43 44 46 46 46 46 48 48 50 50 51 55 56 56 58 57 52 47 51 51 50 48 40 38
14 17 19 21 21 22 24 25 26 27 28 26 24 24 25 29 30 29 31 31 33 33 35 37 37 37 43 50 50 51 50 54 56 58 57 56 54 52 53 57 56 54 51 47
6 10 14 16 17 19 20 21 22 23 23 21 20 20 20 20 20 22 25 25 28 30 31 33 35 35 38 39 42 43 50 54 55 56 60 58 59 59 58 60 62 60 59 59
3 4 7 10 13 15 17 18 19 18 18 18 17 18 16 16 14 15 16 19 23 26 26 26 30 34 39 40 34 35 38 45 53 55 61 63 63 63 64 62 61 62 62 57
6 4 4 6 9 10 12 14 15 15 17 16 17 14 15 12 14 15 16 19 20 21 24 26 28 27 29 30 31 33 40 46 48 53 60 69 71 68 69 68 66 63 60 56
9 7 6 6 7 8 10 11 13 15 14 12 12 12 13 15 16 17 16 16 18 22 24 23 26 27 26 29 34 37 43 48 53 59 62 71 73 76 72 71 72 69 64 57
12 11 9 9 12 9 9 10 12 12 10 9 9 12 15 16 15 14 14 14 14 16 19 23 27 29 33 34 35 34 42 47 57 62 68 70 77 78 80 76 74 72 68 61
12 11 11 10 9 10 10 9 8 7 5 5 5 6 8 8 9 10 11 10 11 11 10 10 13 17 25 33 36 34 33 40 47 59 68 72 76 81 82 82 81 79 76 69
11 13 14 14 13 12 12 11 10 8 6 5 4 5 6 5 4 4 5 6 8 10 12 11 10 11 15 16 22 27 28 31 37 47 58 66 71 77 82 83 83 85 83 80
14 13 14 14 13 12 11 9 8 7 7 7 6 5 4 4 4 4 6 9 12 13 13 14 17 18 19 22 25 24 23 24 26 33 42 53 60 64 71 81 85 84 83 80
13 13 11 10 10 10 11 10 8 6 5 4 3 3 3 2 4 6 9 11 13 16 17 17 20 24 28 30 31 30 28 27 24 29 36 42 49 56 62 66 71 79 79 77
13 12 12 12 11 11 11 9 7 7 6 5 6 5 4 6 8 12 13 14 17 20 21 20 19 20 23 26 30 34 36 37 36 33 31 36 43 50 56 61 65 67 69 72
14 13 14 12 12 11 10 9 10 11 11 12 10 9 8 6 6 8 11 13 15 15 15 15 15 16 21 23 26 25 24 29 33 38 42 41 38 39 45 55 59 65 67 65
14 14 14 14 14 13 11 10 9 11 12 12 11 10 9 8 8 10 13 14 13 15 15 18 19 26 27 27 29 26 29 24 24 31 34 33 35 38 43 44 48 55 62 68
Wind_Direction
260 258 255 254 253 254 252 247 250 242 238 236 223 203 189 198 206 210 205 223 236 218 225 234 224 208 168 272 227 224 208 231 203 213 216 205 219 205 292 300 298 325 309 292
255 255 255 254 252 251 250 248 239 247 242 234 218 212 204 204 215 217 213 223 240 233 225 228 239 243 201 178 216 215 218 241 224 209 221 230 218 251 262 310 318 323 324 289
256 254 253 252 252 250 250 250 247 241 243 243 237 229 221 217 220 228 226 221 232 238 233 233 221 234 235 218 207 223 239 253 250 223 217 227 210 229 257 253 273 302 300 297
255 253 251 249 249 249 250 251 255 254 246 250 246 246 236 223 226 233 242 230 224 228 227 226 227 216 222 232 216 224 241 250 258 253 214 215 216 216 222 237 248 281 283 301
258 255 252 250 249 249 249 251 250 246 243 238 234 233 233 236 231 233 238 237 237 225 225 222 224 214 219 229 223 221 230 245 245 251 253 226 220 219 227 226 250 261 260 280
259 256 254 253 251 249 249 250 250 248 247 245 241 242 239 232 235 245 248 247 242 240 238 230 221 218 220 225 225 222 226 225 236 244 248 247 236 214 225 221 233 245 261 272
261 258 255 253 252 251 249 248 249 248 249 248 245 243 242 243 239 243 248 249 247 240 238 236 231 223 222 231 231 229 229 234 247 253 246 245 241 230 228 229 225 237 249 255
261 259 256 253 251 250 249 247 247 247 244 246 247 247 247 246 243 244 250 252 251 251 247 239 235 229 225 229 234 238 239 242 246 251 256 256 244 237 232 232 230 234 244 246
261 258 254 251 250 250 248 246 244 243 242 245 247 248 249 252 251 245 243 249 256 256 252 246 239 232 233 229 229 235 245 253 256 256 257 263 253 240 226 224 238 235 240 243
261 258 254 251 248 247 247 246 246 245 244 245 246 248 251 251 250 248 244 246 244 245 244 242 239 237 235 235 228 228 234 242 251 256 259 260 259 220 207 214 225 228 235 233
259 256 253 249 247 245 244 242 243 242 242 245 245 244 245 246 243 241 239 241 242 245 244 242 240 237 234 235 231 226 232 237 242 246 251 254 242 211 212 211 220 223 224 232
259 255 251 246 242 242 241 237 239 241 242 244 243 242 243 246 247 244 242 243 246 247 246 244 242 243 240 239 237 233 227 229 233 237 238 240 233 219 223 220 224 228 224 221
255 252 248 244 239 236 235 233 232 233 234 240 240 242 246 247 246 244 242 243 246 248 248 247 243 241 238 236 237 230 234 230 230 231 240 243 240 221 225 230 231 232 228 222
248 245 240 236 234 234 230 227 228 229 233 240 242 242 243 245 250 250 247 246 247 248 249 248 245 242 240 238 235 232 229 234 232 233 235 241 242 237 228 224 229 232 225 225
226 224 224 221 223 226 225 222 221 224 230 235 238 243 250 249 247 246 243 242 244 244 248 250 248 245 239 238 237 233 228 227 230 231 234 236 237 234 230 227 226 228 232 224
214 210 212 215 213 214 216 215 216 219 227 232 233 234 237 244 243 243 245 245 247 249 248 250 251 246 241 239 239 239 234 226 224 229 229 228 232 235 235 232 229 228 225 229
87 179 194 201 206 205 208 209 211 213 221 219 215 220 232 236 236 241 245 249 248 246 247 248 251 252 249 246 242 240 237 237 230 223 226 224 223 230 233 235 235 233 233 234
70 107 155 185 194 195 196 202 204 205 204 215 214 209 225 235 244 251 256 257 255 253 252 251 250 250 254 249 245 239 234 232 233 228 221 223 221 225 233 236 235 238 240 238
62 82 113 139 163 177 178 192 195 188 186 187 193 207 226 240 248 251 250 257 259 254 255 254 247 250 258 253 246 246 239 234 230 229 224 221 221 225 227 233 237 238 242 242
63 76 87 106 131 137 150 155 165 175 184 198 210 230 238 250 256 253 249 256 263 265 263 257 255 255 254 251 255 262 255 244 235 229 226 222 221 222 226 229 234 238 242 244
57 66 83 99 113 120 122 122 131 143 161 172 186 205 212 219 227 236 244 250 258 265 270 280 280 277 264 254 263 267 266 254 244 234 228 223 220 223 225 227 230 235 238 241
45 53 70 82 95 101 106 112 120 123 128 147 158 177 188 194 202 232 240 244 267 276 283 286 287 284 287 286 273 278 260 253 249 242 231 227 225 223 224 228 230 232 235 241
63 70 84 84 91 99 105 111 114 110 110 109 107 112 131 171 197 224 251 275 285 290 293 297 292 284 279 276 276 277 265 252 246 240 233 229 230 229 230 229 228 230 233 233
61 69 75 79 77 72 72 71 73 79 88 91 79 62 35 319 291 288 293 305 308 310 308 300 286 283 279 277 276 272 265 257 249 239 233 228 229 231 232 234 234 235 236 237
56 62 69 66 67 62 62 55 49 44 40 29 26 20 350 331 321 316 316 313 308 304 301 303 302 294 290 286 284 280 272 260 258 253 245 239 233 228 229 232 234 234 235 236
60 63 68 70 67 63 58 46 36 28 27 23 18 16 16 4 352 341 328 325 330 335 333 323 315 314 318 322 322 304 297 285 269 257 252 246 244 239 234 233 236 235 232 234
64 60 61 62 61 60 58 53 45 24 21 25 22 23 22 18 18 11 26 24 10 353 354 346 334 332 328 322 316 320 318 296 280 256 254 253 245 238 237 235 234 234 234 230
Height
5813 5813 5814 5814 5815 5815 5816 5817 5817 5818 5820 5823 5825 5828 5830 5832 5834 5837 5841 5843 5844 5846 5849 5850 5852 5854 5857 5862 5867 5866 5871 5875 5879 5880 5887 5890 5888 5887 5892 5892 5895 5895 5895 5899
5805 5805 5806 5807 5808 5809 5809 5810 5813 5812 5814 5816 5819 5821 5823 5824 5825 5829 5834 5838 5842 5843 5845 5846 5849 5850 5854 5855 5861 5864 5867 5869 5873 5878 5881 5884 5885 5887 5888 5891 5891 5892 5893 5893
5796 5797 5798 5799 5800 5801 5802 5803 5805 5809 5810 5810 5813 5814 5817 5822 5821 5822 5825 5830 5834 5838 5840 5841 5844 5846 5848 5850 5854 5860 5864 5865 5866 5872 5878 5881 5882 5883 5885 5888 5888 5889 5890 5889
5786 5787 5788 5789 5791 5792 5794 5795 5798 5801 5803 5803 5807 5809 5813 5814 5816 5817 5817 5823 5826 5828 5830 5833 5837 5843 5845 5847 5849 5854 5859 5859 5862 5865 5871 5872 5876 5878 5881 5882 5884 5885 5886 5885
5774 5775 5776 5778 5780 5782 5784 5785 5787 5790 5792 5793 5797 5799 5802 5804 5805 5807 5810 5814 5818 5820 5821 5826 5832 5839 5841 5842 5846 5848 5852 5855 5858 5860 5864 5867 5869 5874 5876 5879 5880 5880 5878 5879
5759 5761 5763 5765 5767 5770 5773 5775 5776 5779 5781 5784 5788 5787 5791 5794 5798 5798 5800 5806 5810 5812 5816 5821 5825 5831 5835 5837 5840 5843 5845 5848 5851 5853 5858 5859 5861 5868 5870 5873 5875 5874 5875 5876
5743 5745 5747 5749 5752 5755 5760 5762 5764 5768 5770 5772 5774 5777 5781 5784 5790 5789 5792 5796 5799 5804 5809 5816 5820 5823 5828 5829 5832 5835 5838 5841 5843 5845 5848 5847 5855 5860 5864 5867 5871 5869 5870 5872
5726 5728 5731 5733 5736 5739 5743 5749 5751 5756 5758 5758 5761 5766 5769 5772 5779 5784 5783 5786 5789 5795 5803 5808 5812 5815 5817 5821 5825 5826 5831 5834 5836 5838 5840 5843 5846 5852 5857 5860 5864 5861 5864 5867
5707 5710 5713 5716 5720 5723 5727 5733 5737 5741 5745 5746 5750 5755 5759 5761 5765 5774 5776 5776 5777 5784 5789 5797 5800 5805 5808 5812 5819 5820 5820 5823 5828 5831 5833 5835 5842 5846 5846 5847 5849 5854 5858 5862
5689 5691 5695 5700 5703 5707 5712 5718 5724 5728 5732 5734 5740 5743 5745 5750 5753 5757 5763 5762 5765 5768 5774 5781 5788 5794 5798 5802 5807 5815 5814 5815 5818 5822 5824 5828 5836 5838 5838 5841 5844 5847 5851 5854
5672 5674 5678 5683 5687 5692 5698 5706 5708 5713 5716 5719 5727 5731 5731 5732 5738 5742 5748 5750 5749 5752 5761 5769 5773 5778 5785 5788 5794 5802 5806 5808 5811 5814 5817 5821 5831 5833 5834 5834 5835 5841 5844 5847
5656 5660 5664 5669 5674 5678 5684 5691 5695 5701 5706 5709 5713 5717 5719 5723 5729 5734 5736 5737 5737 5740 5747 5755 5761 5767 5773 5777 5784 5790 5796 5798 5803 5806 5811 5813 5821 5826 5828 5829 5830 5834 5840 5844
5643 5647 5652 5657 5662 5667 5672 5679 5684 5689 5693 5697 5703 5708 5711 5713 5714 5719 5723 5724 5727 5730 5735 5740 5747 5751 5756 5762 5766 5777 5778 5784 5788 5799 5800 5803 5810 5815 5817 5821 5824 5827 5832 5837
5631 5637 5642 5647 5652 5657 5663 5668 5675 5680 5685 5689 5695 5698 5698 5701 5703 5707 5710 5712 5714 5718 5721 5725 5730 5737 5740 5746 5751 5760 5766 5770 5777 5783 5789 5791 5797 5803 5805 5808 5813 5821 5826 5830
5624 5629 5635 5640 5645 5650 5656 5661 5667 5672 5678 5681 5685 5688 5690 5690 5693 5695 5698 5701 5704 5708 5711 5714 5718 5722 5726 5730 5736 5745 5750 5758 5764 5769 5775 5779 5783 5787 5791 5796 5802 5807 5814 5822
5623 5627 5631 5635 5640 5645 5650 5656 5661 5665 5670 5674 5678 5680 5682 5684 5686 5688 5691 5694 5697 5699 5702 5704 5706 5710 5714 5720 5727 5735 5736 5741 5747 5756 5762 5766 5769 5773 5777 5782 5788 5793 5799 5805
5625 5628 5630 5634 5637 5642 5647 5652 5656 5661 5665 5668 5672 5674 5678 5679 5682 5684 5686 5688 5690 5692 5693 5696 5697 5700 5703 5711 5721 5723 5725 5728 5733 5741 5749 5755 5757 5759 5763 5769 5775 5781 5789 5797
5628 5630 5631 5634 5637 5641 5645 5649 5653 5657 5661 5664 5668 5672 5673 5676 5678 5679 5681 5681 5683 5684 5686 5688 5689 5692 5694 5701 5707 5709 5711 5712 5716 5723 5729 5737 5744 5744 5749 5755 5761 5769 5777 5786
5632 5632 5633 5635 5638 5640 5643 5647 5650 5654 5659 5661 5665 5668 5670 5671 5673 5675 5677 5677 5677 5679 5679 5681 5682 5685 5687 5688 5689 5691 5693 5696 5701 5702 5708 5715 5724 5728 5734 5740 5745 5755 5764 5774
5636 5636 5636 5638 5640 5642 5644 5647 5650 5654 5656 5659 5662 5664 5666 5668 5669 5671 5673 5673 5673 5672 5672 5672 5673 5674 5673 5674 5677 5679 5678 5679 5680 5682 5690 5697 5705 5712 5718 5723 5730 5738 5748 5758
5643 5641 5641 5642 5643 5645 5647 5649 5651 5653 5656 5658 5660 5662 5663 5665 5666 5667 5668 5668 5668 5668 5668 5667 5666 5665 5665 5666 5666 5665 5664 5664 5663 5663 5670 5678 5685 5691 5698 5706 5714 5719 5728 5737
5648 5646 5646 5646 5647 5648 5649 5650 5651 5653 5656 5657 5658 5660 5661 5663 5664 5665 5666 5666 5666 5665 5664 5663 5663 5662 5659 5657 5657 5656 5653 5651 5649 5650 5654 5662 5669 5674 5681 5689 5696 5702 5710 5717
5652 5652 5651 5651 5651 5651 5651 5652 5653 5655 5656 5657 5658 5660 5661 5662 5663 5663 5664 5663 5662 5662 5661 5660 5658 5656 5654 5652 5649 5646 5643 5640 5639 5639 5642 5648 5656 5661 5666 5672 5678 5684 5691 5701
5657 5656 5655 5655 5655 5655 5656 5657 5657 5658 5658 5659 5660 5661 5662 5663 5662 5662 5661 5661 5659 5658 5657 5656 5652 5650 5647 5643 5639 5636 5634 5632 5630 5630 5630 5634 5639 5645 5649 5654 5660 5666 5673 5680
5661 5660 5660 5659 5659 5659 5660 5659 5659 5660 5660 5661 5662 5663 5662 5661 5661 5660 5660 5658 5656 5653 5651 5648 5644 5640 5636 5631 5627 5623 5620 5619 5618 5619 5620 5623 5625 5629 5634 5637 5641 5646 5653 5659
5665 5664 5664 5664 5664 5663 5663 5662 5662 5662 5662 5663 5662 5662 5661 5661 5660 5659 5657 5655 5653 5650 5646 5643 5638 5634 5628 5623 5619 5613 5609 5604 5603 5603 5605 5608 5612 5615 5619 5620 5624 5629 5634 5642
5669 5669 5669 5668 5668 5667 5667 5666 5665 5664 5664 5664 5662 5661 5660 5659 5658 5658 5655 5654 5651 5648 5644 5639 5633 5627 5621 5615 5610 5604 5599 5594 5591 5589 5590 5591 5592 5595 5599 5605 5610 5611 5615 5621